GW5072 Weather Reports


time (UTC)temp
C
wind
direction
speed
KPH
gust
KPH
rain 1hr
cm
rain 24hr
cm
rain mn
cm
humidity
%
barometer
mb
20260506110509 22 181 0.0 0.0 0.00 0.00 0.00 93 1009.5
20260506110019 23 181 0.0 0.0 0.00 0.00 0.00 93 1009.4
20260506105506 23 181 0.0 3.2 0.00 0.00 0.00 92 1009.2
20260506105008 23 181 0.0 3.2 0.00 0.00 0.00 92 1009.0
20260506104512 23 313 0.0 1.6 0.00 0.00 0.00 92 1009.0
20260506104008 23 69 0.0 1.6 0.00 0.00 0.00 92 1008.9
20260506103507 23 92 0.0 1.6 0.00 0.00 0.00 92 1008.8
20260506103010 23 288 0.0 1.6 0.00 0.00 0.00 92 1008.8
20260506102509 23 114 0.0 1.6 0.00 0.00 0.00 92 1008.8
20260506102009 23 91 0.0 6.4 0.00 0.00 0.00 92 1008.9
20260506101538 23 197 0.0 6.4 0.00 0.00 0.00 92 1008.8
20260506101010 23 70 0.0 3.2 0.00 0.00 0.00 92 1008.9
20260506100503 23 79 0.0 4.8 0.00 0.00 0.00 92 1008.8
20260506100031 23 110 0.0 4.8 0.00 0.00 0.00 92 1008.9
20260506095505 23 180 0.0 4.8 0.00 0.00 0.00 92 1008.9
20260506095004 23 75 0.0 6.4 0.00 0.00 0.00 92 1008.7
20260506094525 23 82 0.0 6.4 0.00 0.00 0.00 92 1008.6
20260506094006 23 131 0.0 1.6 0.00 0.00 0.00 92 1008.4
20260506093512 23 117 0.0 3.2 0.00 0.00 0.00 92 1008.5
20260506093024 23 117 0.0 4.8 0.00 0.00 0.00 92 1008.4
20260506092507 23 151 0.0 4.8 0.00 0.00 0.00 92 1008.4
20260506092010 23 124 0.0 6.4 0.00 0.00 0.00 92 1008.4
20260506091522 23 222 0.0 6.4 0.00 0.00 0.00 92 1008.4
20260506091007 23 105 0.0 6.4 0.00 0.00 0.00 92 1008.5
20260506090509 23 235 0.0 6.4 0.00 0.00 0.00 92 1008.5
20260506090019 23 91 0.0 8.0 0.00 0.00 0.00 91 1008.4
20260506085509 23 81 0.0 8.0 0.00 0.00 0.00 91 1008.4
20260506085006 23 113 0.0 3.2 0.00 0.00 0.00 91 1008.5
20260506084523 23 92 0.0 4.8 0.00 0.00 0.00 91 1008.4
20260506084008 23 116 0.0 8.0 0.00 0.00 0.00 91 1008.3
20260506083507 23 115 0.0 8.0 0.00 0.00 0.00 91 1008.5
20260506083029 23 108 1.6 8.0 0.00 0.00 0.00 91 1008.5
20260506082506 23 262 0.0 6.4 0.00 0.00 0.00 91 1008.6
20260506082009 23 216 0.0 6.4 0.00 0.00 0.00 91 1008.6
20260506081528 23 109 0.0 3.2 0.00 0.00 0.00 91 1008.6
20260506081015 23 111 0.0 3.2 0.00 0.00 0.00 91 1008.6
20260506080504 23 246 0.0 1.6 0.00 0.00 0.00 91 1008.7
20260506073509 24 113 0.0 3.2 0.00 0.00 0.00 91 1009.1
20260506073025 24 212 0.0 4.8 0.00 0.00 0.00 91 1009.2
20260506072504 24 96 0.0 4.8 0.00 0.00 0.00 91 1009.3
20260506072015 24 215 0.0 3.2 0.00 0.00 0.00 91 1009.4
20260506071522 24 117 0.0 3.2 0.00 0.00 0.00 91 1009.5
20260506071012 24 121 0.0 3.2 0.00 0.00 0.00 91 1009.6
20260506070510 24 212 0.0 1.6 0.00 0.00 0.00 90 1009.5
20260506062512 24 83 0.0 1.6 0.00 0.00 0.00 90 1009.7
20260506062008 24 241 0.0 3.2 0.00 0.00 0.00 90 1009.7
20260506061510 24 266 0.0 3.2 0.00 0.00 0.00 90 1009.7
20260506061004 24 207 0.0 8.0 0.00 0.00 0.00 90 1009.7
20260506060501 24 126 0.0 8.0 0.00 0.00 0.00 90 1009.8
20260506051003 24 111 0.0 9.7 0.00 0.00 0.00 88 1009.4
20260506050503 24 94 0.0 9.7 0.00 0.00 0.00 88 1009.4
20260506045004 25 111 0.0 4.8 0.00 0.00 0.00 88 1009.5
20260506044519 25 207 0.0 4.8 0.00 0.00 0.00 88 1009.5
20260506044005 25 248 0.0 6.4 0.00 0.00 0.00 88 1009.4
20260506043506 25 199 0.0 6.4 0.00 0.00 0.00 88 1009.5
20260506043014 25 217 0.0 6.4 0.00 0.00 0.00 87 1009.3
20260506042502 25 108 1.6 4.8 0.00 0.00 0.00 87 1009.4
20260506042003 25 309 0.0 4.8 0.00 0.00 0.00 87 1009.4
20260506041514 25 144 0.0 4.8 0.00 0.00 0.00 87 1009.5
20260506041002 25 205 0.0 4.8 0.00 0.00 0.00 87 1009.5
20260506040507 25 107 0.0 9.7 0.00 0.00 0.00 87 1009.6
20260506040020 25 207 1.6 9.7 0.00 0.00 0.00 87 1009.5
20260506035503 25 238 0.0 3.2 0.00 0.00 0.00 87 1009.3
20260506035007 25 241 0.0 3.2 0.00 0.00 0.00 87 1009.2
20260506034510 25 252 0.0 3.2 0.00 0.00 0.00 87 1009.2
20260506034002 25 110 0.0 1.6 0.00 0.00 0.00 87 1009.2
20260506033505 25 115 0.0 1.6 0.00 0.00 0.00 87 1009.2
20260506033007 25 192 0.0 1.6 0.00 0.00 0.00 86 1009.2
20260506032507 25 229 0.0 1.6 0.00 0.00 0.00 86 1009.1
20260506032006 25 288 0.0 1.6 0.00 0.00 0.00 86 1009.0
20260506031504 25 288 0.0 4.8 0.00 0.00 0.00 86 1009.0
20260506031004 25 288 0.0 4.8 0.00 0.00 0.00 86 1009.0
20260506030505 25 176 0.0 4.8 0.00 0.00 0.00 86 1009.0
20260506030004 25 198 0.0 9.7 0.00 0.00 0.00 85 1008.9
20260506025506 25 208 0.0 9.7 0.00 0.00 0.00 85 1008.9
20260506025003 25 176 0.0 9.7 0.00 0.00 0.00 85 1008.8
20260506024525 25 247 0.0 9.7 0.00 0.00 0.00 85 1008.7
20260506024006 25 254 0.0 4.8 0.00 0.00 0.00 85 1008.7
20260506023502 25 255 0.0 4.8 0.00 0.00 0.00 85 1008.6
20260506023026 25 262 0.0 6.4 0.00 0.00 0.00 85 1008.4
20260506022505 25 311 0.0 6.4 0.00 0.00 0.00 85 1008.4
20260506022012 25 136 0.0 4.8 0.00 0.00 0.00 85 1008.3
20260506021529 25 219 0.0 4.8 0.00 0.00 0.00 85 1008.3
20260506021002 25 192 0.0 1.6 0.00 0.00 0.00 85 1008.1
20260506020507 25 245 0.0 1.6 0.00 0.00 0.00 85 1008.1
20260506020010 25 132 0.0 0.0 0.00 0.00 0.00 85 1008.0
20260506015503 25 163 0.0 1.6 0.00 0.00 0.00 85 1008.0
20260506015007 25 230 0.0 1.6 0.00 0.00 0.00 84 1007.9
20260506014508 25 230 0.0 0.0 0.00 0.00 0.00 84 1007.8
20260506014007 25 249 0.0 6.4 0.00 0.00 0.00 84 1007.8
20260506013506 25 248 0.0 6.4 0.00 0.00 0.00 84 1007.7
20260506013007 25 250 0.0 6.4 0.00 0.00 0.00 84 1007.6
20260506012506 25 257 0.0 4.8 0.00 0.00 0.00 84 1007.5
20260506012004 25 224 0.0 4.8 0.00 0.00 0.00 83 1007.5
20260506011507 25 221 0.0 3.2 0.00 0.00 0.00 83 1007.4
20260506011008 25 214 0.0 1.6 0.00 0.00 0.00 83 1007.3
20260506010505 26 214 0.0 6.4 0.00 0.00 0.00 82 1007.3
20260506010041 26 221 0.0 11.3 0.00 0.00 0.00 82 1007.3
20260506005506 26 174 0.0 11.3 0.00 0.00 0.00 82 1007.1
20260506005003 26 169 0.0 8.0 0.00 0.00 0.00 81 1006.9
20260506004525 26 106 0.0 6.4 0.00 0.00 0.00 81 1007.0
20260506004004 26 121 0.0 6.4 0.00 0.00 0.00 81 1007.0
20260506003509 26 244 0.0 4.8 0.00 0.00 0.00 81 1007.1
20260506003020 26 93 0.0 4.8 0.00 0.00 0.00 81 1007.0
20260506002507 26 101 0.0 3.2 0.00 0.00 0.00 81 1007.1
20260506002009 26 128 0.0 1.6 0.00 0.00 0.00 81 1007.1
20260506001515 26 178 0.0 4.8 0.00 0.00 0.00 81 1007.0
20260506001003 26 195 0.0 4.8 0.00 0.00 0.00 81 1007.0
20260506000507 26 263 0.0 3.2 0.00 0.00 0.00 80 1007.3
20260506000015 27 291 0.0 3.2 0.00 0.00 0.00 80 1007.2
20260505235509 27 98 0.0 3.2 0.00 0.00 0.00 80 1006.9
20260505235007 27 117 1.6 3.2 0.00 0.00 0.00 79 1006.8
20260505234525 27 156 0.0 1.6 0.00 0.00 0.00 79 1007.0
20260505234007 27 223 0.0 1.6 0.00 0.00 0.00 79 1007.0
20260505233503 27 268 0.0 4.8 0.00 0.00 0.00 78 1006.9
20260505233010 27 269 0.0 8.0 0.00 0.00 0.00 78 1006.8
20260505232510 27 122 0.0 8.0 0.00 0.00 0.00 78 1006.7
20260505232007 27 200 1.6 14.5 0.00 0.00 0.00 78 1006.8
20260505231531 27 98 1.6 14.5 0.00 0.00 0.00 77 1006.7
20260505231006 27 199 0.0 8.0 0.00 0.00 0.00 78 1006.7
20260505230504 27 115 0.0 8.0 0.00 0.00 0.00 77 1006.9
20260505230025 27 26 0.0 8.0 0.00 0.00 0.00 77 1007.0
20260505225508 27 274 1.6 9.7 0.00 0.00 0.00 77 1006.9
20260505225006 27 190 1.6 9.7 0.00 0.00 0.00 76 1007.0
20260505224522 27 240 1.6 8.0 0.00 0.00 0.00 77 1006.9
20260505224006 28 107 0.0 8.0 0.00 0.00 0.00 79 1006.9
20260505223519 27 279 0.0 8.0 0.00 0.00 0.00 78 1006.8
20260505223020 27 205 1.6 8.0 0.00 0.00 0.00 77 1006.7
20260505222509 27 262 3.2 11.3 0.00 0.00 0.00 76 1006.8
20260505222008 28 103 1.6 11.3 0.00 0.00 0.00 76 1007.0
20260505221517 28 107 0.0 9.7 0.00 0.00 0.00 77 1006.9
20260505221016 28 98 3.2 9.7 0.00 0.00 0.00 76 1006.9
20260505220508 28 154 0.0 11.3 0.00 0.00 0.00 77 1007.0
20260505220015 28 168 1.6 11.3 0.00 0.00 0.00 76 1007.1
20260505215508 28 211 1.6 9.7 0.00 0.00 0.00 75 1007.0
20260505215008 28 233 0.0 6.4 0.00 0.00 0.00 76 1007.2
20260505214512 28 100 0.0 8.0 0.00 0.00 0.00 77 1007.3
20260505214009 28 110 1.6 8.0 0.00 0.00 0.00 76 1007.4
20260505213503 28 195 1.6 6.4 0.00 0.00 0.00 76 1007.5
20260505213024 28 220 0.0 11.3 0.00 0.00 0.00 76 1007.6
20260505212515 28 228 3.2 11.3 0.00 0.00 0.00 75 1007.6
20260505212009 28 82 1.6 8.0 0.00 0.00 0.00 77 1007.7
20260505211526 28 285 1.6 9.7 0.00 0.00 0.00 76 1007.8
20260505211006 28 276 1.6 9.7 0.00 0.00 0.00 75 1007.8
20260505210503 28 206 0.0 8.0 0.00 0.00 0.00 76 1007.8
20260505210024 28 250 0.0 11.3 0.00 0.00 0.00 75 1007.9
20260505205504 29 39 1.6 14.5 0.00 0.00 0.00 73 1008.0
20260505205012 29 196 3.2 14.5 0.00 0.00 0.00 73 1008.0
20260505204523 29 219 3.2 11.3 0.00 0.00 0.00 73 1008.0
20260505204010 29 209 3.2 11.3 0.00 0.00 0.00 73 1008.0
20260505203512 29 126 1.6 8.0 0.00 0.00 0.00 73 1008.1
20260505203033 29 259 1.6 9.7 0.00 0.00 0.00 77 1008.2
20260505202508 28 209 1.6 9.7 0.00 0.00 0.00 75 1008.2
20260505202009 28 115 3.2 12.9 0.00 0.00 0.00 77 1008.3
20260505201525 28 255 4.8 12.9 0.00 0.00 0.00 75 1008.4
20260505201010 28 237 3.2 14.5 0.00 0.00 0.00 76 1008.3
20260505200514 28 181 3.2 14.5 0.00 0.00 0.00 76 1008.4
20260505200015 28 94 0.0 14.5 0.00 0.00 0.00 77 1008.5
20260505195511 28 195 3.2 14.5 0.00 0.00 0.00 76 1008.7
20260505195007 28 122 1.6 12.9 0.00 0.00 0.00 76 1008.7
20260505194528 28 124 0.0 12.9 0.00 0.00 0.00 76 1008.8
20260505194009 28 275 1.6 8.0 0.00 0.00 0.00 76 1008.9
20260505193505 28 135 1.6 12.9 0.00 0.00 0.00 78 1008.9
20260505193025 28 257 0.0 14.5 0.00 0.00 0.00 79 1008.9
20260505192508 27 62 1.6 16.1 0.00 0.00 0.00 77 1009.0
20260505192004 27 245 3.2 16.1 0.00 0.00 0.00 77 1009.0
20260505191527 27 219 4.8 14.5 0.00 0.00 0.00 78 1008.9
20260505191011 27 75 1.6 12.9 0.00 0.00 0.00 78 1009.0
20260505190510 27 241 3.2 8.0 0.00 0.00 0.00 78 1009.1
20260505190024 27 223 0.0 11.3 0.00 0.00 0.00 79 1009.1
20260505185507 27 264 1.6 11.3 0.00 0.00 0.00 80 1009.0
20260505185012 27 98 1.6 12.9 0.00 0.00 0.00 79 1009.2
20260505184526 27 11 3.2 17.7 0.00 0.00 0.00 78 1009.1
20260505184006 27 216 3.2 17.7 0.00 0.00 0.00 79 1009.3
20260505183511 27 86 1.6 11.3 0.00 0.00 0.00 80 1009.2
20260505183021 27 309 0.0 9.7 0.00 0.00 0.00 81 1009.2
20260505182517 27 135 1.6 9.7 0.00 0.00 0.00 82 1009.3
20260505182012 26 217 0.0 11.3 0.00 0.00 0.00 82 1009.4
20260505181521 26 249 3.2 11.3 0.00 0.00 0.00 81 1009.5
20260505181006 26 146 4.8 11.3 0.00 0.00 0.00 81 1009.5
20260505180505 26 210 3.2 8.0 0.00 0.00 0.00 81 1009.6
20260505180037 26 91 1.6 6.4 0.00 0.00 0.00 81 1009.5
20260505175504 26 149 3.2 14.5 0.00 0.00 0.00 82 1009.6
20260505175010 26 214 1.6 14.5 0.00 0.00 0.00 83 1009.6
20260505174532 26 128 0.0 9.7 0.00 0.00 0.00 83 1009.6
20260505174004 26 233 3.2 11.3 0.00 0.00 0.00 82 1009.6
20260505173506 26 208 0.0 11.3 0.00 0.00 0.00 84 1009.6
20260505173020 25 100 1.6 9.7 0.00 0.00 0.00 85 1009.6
20260505172502 25 204 3.2 12.9 0.00 0.00 0.00 84 1009.7
20260505172006 25 82 0.0 12.9 0.00 0.00 0.00 84 1009.8
20260505171516 25 226 0.0 4.8 0.00 0.00 0.00 84 1009.8
20260505171007 26 165 1.6 6.4 0.00 0.00 0.00 83 1009.8
20260505170508 26 219 0.0 6.4 0.00 0.00 0.00 84 1009.8
20260505170006 26 264 0.0 6.4 0.00 0.00 0.00 84 1009.8
20260505165509 26 183 1.6 8.0 0.00 0.00 0.00 83 1009.9
20260505165008 26 193 1.6 9.7 0.00 0.00 0.00 84 1010.0
20260505164506 25 238 3.2 9.7 0.00 0.00 0.00 84 1010.0
20260505164007 25 120 0.0 12.9 0.00 0.00 0.00 85 1009.9
20260505163504 25 207 1.6 12.9 0.00 0.00 0.00 85 1009.9
20260505163024 25 97 1.6 8.0 0.00 0.00 0.00 86 1010.1
20260505162504 25 256 3.2 11.3 0.00 0.00 0.00 85 1010.1
20260505162003 25 209 3.2 11.3 0.00 0.00 0.00 86 1009.9
20260505161521 25 212 3.2 11.3 0.00 0.00 0.00 86 1010.0
20260505161003 25 223 3.2 11.3 0.00 0.00 0.00 86 1010.0
20260505160511 25 184 1.6 9.7 0.00 0.00 0.00 86 1009.9
20260505153012 24 96 0.0 8.0 0.00 0.00 0.00 86 1009.6
20260505152512 24 196 1.6 11.3 0.00 0.00 0.00 86 1009.5
20260505152010 24 209 0.0 11.3 0.00 0.00 0.00 86 1009.6
20260505151513 24 8 1.6 9.7 0.00 0.00 0.00 86 1009.7
20260505151010 24 248 0.0 4.8 0.00 0.00 0.00 87 1009.7
20260505150510 24 263 0.0 11.3 0.00 0.00 0.00 87 1009.5
20260505140507 23 198 0.0 4.8 0.00 0.00 0.00 89 1009.4
20260505125004 21 212 0.0 6.4 0.00 0.00 0.00 92 1009.3
20260505124531 21 238 0.0 6.4 0.00 0.00 0.00 92 1009.2
20260505124007 21 299 0.0 1.6 0.00 0.00 0.00 93 1008.9
20260505123504 21 266 0.0 1.6 0.00 0.00 0.00 93 1008.7
20260505123023 21 188 0.0 4.8 0.00 0.00 0.00 93 1008.8
20260505122505 21 221 0.0 8.0 0.00 0.00 0.00 93 1008.9
20260505122007 21 229 0.0 8.0 0.00 0.00 0.00 93 1008.9
20260505121523 21 101 1.6 4.8 0.00 0.00 0.00 93 1009.0
20260505121003 21 273 0.0 6.4 0.00 0.00 0.00 93 1009.1
20260505120513 21 272 0.0 6.4 0.00 0.00 0.00 93 1009.0
20260505120020 21 260 0.0 1.6 0.00 0.00 0.00 92 1009.0
20260505115504 21 217 0.0 1.6 0.00 0.00 0.00 92 1008.8
20260505115013 21 208 0.0 1.6 0.00 0.00 0.00 92 1008.7
20260505114517 21 198 0.0 1.6 0.00 0.00 0.00 92 1008.6
20260505114012 21 244 0.0 3.2 0.00 0.00 0.00 92 1008.5
20260505113507 21 233 0.0 3.2 0.00 0.00 0.00 92 1008.5
20260505113019 21 244 0.0 3.2 0.00 0.00 0.00 92 1008.6
20260505112509 21 254 0.0 3.2 0.00 0.00 0.00 92 1009.0
20260505112004 21 217 0.0 1.6 0.00 0.00 0.00 92 1008.9
20260505111528 21 221 0.0 1.6 0.00 0.00 0.00 92 1008.8
20260505111010 21 221 0.0 4.8 0.00 0.00 0.00 92 1008.8